Location: Prairie View Elementary School
(39.8322°N, 99.5698°W)
Time: 08:35:10
(UTC+00:00)

BREEZE-M DEB (TANK) - Pass Details

Date: 08 December 2019
Orbit: 321 x 13106 km, 49.6° (Epoch: 19 January)

Event Time Altitude Azimuth Distance (km) Brightness Sun altitude
Rises 00:00:17 0° 305° (NW) 2,799 6.9 -9.0°
Reaches altitude 10° 00:02:56 10° 312° (NW) 1,454 5.3 -9.4°
Maximum altitude 00:05:29 44° 28° (NNE) 464 2.1 -9.9°
Enters shadow 00:07:24 13° 101° (ESE) 1,118 3.9 -10.2°
